Regional Weather Roundup
Issued by NWS

Home | Current Version | Previous Version | Graphics & Text | Print | Product List | Glossary On
Versions: 1 2 3 4 5 6 7 8 9 10 11 12 13 14 15 16 17 18 19 20 21 22 23 24 25 26 27 28 29 30 31 32 33 34 35 36 37 38 39 40 41 42 43 44 45 46 47 48 49 50
000
ASUS43 KLOT 221609
RWRIL

ILLINOIS REGIONAL WEATHER ROUNDUP
NATIONAL WEATHER SERVICE CHICAGO/ROMEOVILLE IL
1000 AM CST WED NOV 22 2017

NOTE: "FAIR" INDICATES FEW OR NO CLOUDS BELOW 12,000 FEET WITH NO
SIGNIFICANT WEATHER AND/OR OBSTRUCTIONS TO VISIBILITY.

* THESE STATIONS ARE NOT UNDER NWS QUALITY CONTROL. THEY ALSO MAY NOT
  REPORT WEATHER SUCH AS PRECIPITATION OR FOG.

ILZ001-002-007-009-015-016-024-221700-
NORTHWEST ILLINOIS

CITY           SKY/WX    TMP DP  RH WIND       PRES   REMARKS
MOLINE         SUNNY     28  15  58 NW3       30.41R
STERLING*        N/A     29  17  61 NW3       30.40
SAVANNA*       SUNNY     26  16  66 W3        30.40S
$$

ILZ003-004-008-010-011-017-018-221700-
NORTH CENTRAL ILLINOIS

CITY           SKY/WX    TMP DP  RH WIND       PRES   REMARKS
ROCKFORD       SUNNY     28  13  53 CALM      30.39R
FREEPORT*      SUNNY     25  14  64 CALM      30.39S
ROCHELLE*      SUNNY     26  15  62 CALM      30.39R
DE KALB*       SUNNY     27  15  62 CALM      30.37R
PERU*          SUNNY     27  16  63 CALM      30.40R
$$

ILZ005-006-012>014-019>023-221700-
NORTHEAST ILLINOIS

CITY           SKY/WX    TMP DP  RH WIND       PRES   REMARKS
CHICAGO-OHARE  MOSUNNY   29  13  51 N3        30.37R
CHICAGO-MIDWAY MOSUNNY   29  14  53 NW6       30.37S WCI  23
AURORA         SUNNY     27  16  63 CALM      30.38S
LANSING*       SUNNY     30  19  64 W7        30.37S WCI  23
JOLIET*        SUNNY     29  18  61 N5        30.39R WCI  24
WAUKEGAN       SUNNY     29  16  58 W3        30.35R
DUPAGE AIRPORT SUNNY     27  14  58 MISG      30.37R
KANKAKEE*      SUNNY     29  16  56 NW3       30.38F
WHEELING       SUNNY     29  15  56 VRB3      30.38R
MORRIS*        SUNNY     29  17  61 N3        30.38R
ROMEOVILLE*    SUNNY     28  17  64 NW3       30.38R
NORTHERLY ISL    N/A     29  16  58 W8          N/A  WCI  21
$$

LMZ740>746-221700-
SOUTHERN LAKE MICHIGAN

STATION/POSITION SKY/WX   TEMP    WIND        PRES    VSBY  WAVE
                          AIR SEA DIR/SP/G                  HT/PER
                          (F)     (DEG/KT/KT) (MB)    (MI)  (FT/S)
SOUTHERN BUOY              31 47   40/  4/  8 1027.3          3/ 6
HARRISON CRIB              28     280/ 11/ 13   N/A
BURNHAM HARBOR             29     260/  6/ 11   N/A
CALUMET HARBOR             29     250/  5/ 10 1027.5R
BURNS HARBOR               31     270/ 14/ 18 1027.8R
MICHIGAN CITY              33     290/ 10/ 11   N/A
$$

ILZ025>027-034>036-040-047-049-050-058-095>099-221700-
WEST-CENTRAL ILLINOIS

CITY           SKY/WX    TMP DP  RH WIND       PRES   REMARKS
QUINCY         SUNNY     27  17  66 CALM      30.42R
GALESBURG*     SUNNY     28  20  72 CALM      30.41R
MACOMB*        SUNNY     27  19  71 CALM      30.44R
JACKSONVILLE*  SUNNY     29  19  66 CALM      30.42R
PITTSFIELD*    SUNNY     29  18  64 CALM      30.43S
$$

ILZ028>032-037-038-041>044-048-051>054-059>061-221700-
CENTRAL ILLINOIS

CITY           SKY/WX    TMP DP  RH WIND       PRES   REMARKS
PONTIAC        SUNNY     29  21  71 W3        30.40S
BLOOMINGTON    SUNNY     29  18  63 VRB7      30.39R WCI  22
DECATUR        SUNNY     32  18  56 VRB3      30.40R
PEORIA         SUNNY     29  16  58 CALM      30.40S
LACON*         SUNNY     27  16  62 CALM      30.40S
LINCOLN*       SUNNY     30  20  66 NE6       30.41S WCI  24
SPRINGFIELD    SUNNY     31  19  61 VRB3      30.42R
TAYLORVILLE    SUNNY     29  19  64 NE3       30.41R
$$

ILZ033-039-045-046-055>057-062-063-221700-
EAST-CENTRAL ILLINOIS

CITY           SKY/WX    TMP DP  RH WIND       PRES   REMARKS
CHAMPAIGN      SUNNY     31  18  58 NW5       30.38S WCI  26
DANVILLE*      SUNNY     29  21  69 N6        30.35R WCI  23
RANTOUL*       SUNNY     31  21  64 N7        30.38R WCI  25
MATTOON        SUNNY     30  19  63 N7        30.38S WCI  23
PARIS*         SUNNY     30  22  73 NW6       30.39S WCI  24
$$

ILZ079-100>102-221700-
SOUTHWEST ILLINOIS

CITY           SKY/WX    TMP DP  RH WIND       PRES   REMARKS
ALTON          SUNNY     30  21  69 CALM      30.42F
BELLEVILLE     SUNNY     32  19  59 NW3       30.41F
CAHOKIA*       SUNNY     31  18  58 CALM      30.43F
SPARTA*        SUNNY     30  21  68 N3        30.44S
$$

ILZ064>066-069>071-074>076-080>082-084>086-088>090-092>094-221700-
SOUTH-CENTRAL ILLINOIS

CITY           SKY/WX    TMP DP  RH WIND       PRES   REMARKS
CARBONDALE     SUNNY     33  22  63 NE6       30.43R WCI  28
CAIRO*         SUNNY     34  23  63 NE10      30.40F WCI  26
EFFINGHAM*     SUNNY     32  20  61 CALM      30.42F
MARION         MOSUNNY   34  23  64 N13       30.42S WCI  25
MT. VERNON     SUNNY     32  20  61 VRB3      30.41F
CENTRALIA*     SUNNY     32  22  65 CALM      30.41S
SALEM*         SUNNY     33  20  60 NE3       30.41S
METROPOLIS*    SUNNY     35  22  57 N6        30.40F WCI  30
$$

ILZ067-068-072-073-078-083-087-091-221700-
SOUTHEAST ILLINOIS

CITY           SKY/WX    TMP DP  RH WIND       PRES   REMARKS
LAWRENCEVILLE  SUNNY     34  21  59 NW7       30.40S WCI  28
FLORA*         SUNNY     33  21  61 N5        30.41F WCI  29
FAIRFIELD*     SUNNY     33  21  62 CALM      30.40F
HARRISBURG*    SUNNY     34  24  65 N7        30.42S WCI  28
ROBINSON*      SUNNY     31  20  63 N6        30.41S WCI  25
CARMI*         SUNNY     33  22  64 N3        30.40S
$$

ABBREVIATIONS USED IN REMARKS
   TC - TEMPERATURE IN CELSIUS
  WCI - WIND CHILL INDEX
   HX - HEAT INDEX
  VSB - VISIBILITY
$$





USA.gov is the U.S. government's official web portal to all federal, state and local government web resources and services.